星链-35346(STARLINK-35346)

导读

STARLINK-35346是美国太空探索技术公司Starlink星链互联网星座的成员,于2025年10月26日发射入轨。作为星链部署的低轨互联网卫星,它承担着为全球偏远地区、海上及航空移动场景提供高速低延迟宽带网络服务的任务,是美国构建大规模低轨卫星通信网络的重要节点,推动全球卫星互联网络覆盖进一步延伸。

Basic Information
目录编号:
66179
目录名称:
STARLINK-35346
国际标识:
2025-243C
轨道中心:
EARTH
卫星名称:
星链-35346
卫星全名:
星链-35346(STARLINK-35346)
卫星状态:
在轨 (已飞行313 天)
发射日期:
2025-10-26 UTC
国别 :
美国 (US)
星等 :
--
Orbit Information
数据来源 国际轨道数据
星历时间: 2026-09-03T10:46:38+0800
1天前
查看轨道信息
半长轴: 6840.793km
偏心率: 0.0001184
轨道倾角: 53.157°
近地点辐角 92.281°
升交点赤经 138.637°
平近点角 267.833°
近地点: 461.846km
远地点: 463.466km
周期: 93.847分钟
每日圈数: 15.344162
Detailed Information
固有亮度:
5
最大亮度:
2.5
卫星平台:
Starlink V1.0
覆盖范围:
全球
运营商:
太空探索技术公司
运营商所在国:
美国
制造商(研发单位):
太空探索技术公司
制造商所在国:
美国
使用方式:
暂无
Satellite Introduction
Starlink 计划是 SpaceX 推出的全球卫星互联网项目,通过发射低轨道卫星,为全球尤其是偏远地区提供高速、低延迟的互联网服务。自 2019 年起,Starlink 已部署数千颗卫星,旨在缩小全球数字鸿沟,推动互联网普及。该项目还为军事、航空等行业提供通信支持,带来广泛经济效益。
2D Orbit Map
3D Orbit Map
Orbit Altitude Analysis Chart
Orbit Inclination Analysis Chart
Orbit Comprehensive Analysis Chart
View Comprehensive Chart
Conjunction Data List
Event ID Objects TCA Miss Dist (km) Collision Risk Probability Collision Risk Index (CRI) Action
CDM_260905-121306-540406-617921
2026-09-05T
12:13:09+0000
0.591 km
远距离
1.994827E-5 中风险 0.61
CDM_260906-031606-309506-617921
2026-09-06T
03:16:05+0000
1.206 km
极远距离
1.249061E-5 中风险 0.57
CDM_260905-214706-309506-617921
2026-09-05T
21:47:47+0000
1.593 km
极远距离
4.903851E-6 低风险 0.49
CDM_260905-130006-540406-617921
2026-09-05T
13:00:02+0000
0.969 km
远距离
3.831703E-6 低风险 0.47
CDM_260906-143706-265606-617921
2026-09-06T
14:37:35+0000
2.578 km
极远距离
1.631442E-6 低风险 0.39
CDM_260905-143306-540406-617921
2026-09-05T
14:33:50+0000
1.313 km
极远距离
1.436853E-6 低风险 0.38
CDM_260906-222906-593406-617921
2026-09-06T
22:29:58+0000
2.357 km
极远距离
1.328042E-6 低风险 0.37
CDM_260906-205606-593406-617921
2026-09-06T
20:56:11+0000
2.992 km
极远距离
9.279819E-7 极低风险 0.34
CDM_260905-134606-540406-617921
2026-09-05T
13:46:56+0000
1.758 km
极远距离
6.514912E-7 极低风险 0.31
CDM_260905-103906-540406-617921
2026-09-05T
10:39:21+0000
2.704 km
极远距离
3.078537E-7 极低风险 0.25